MDT,Max TemperatureF,Mean TemperatureF,Min TemperatureF,Max Dew PointF,MeanDew PointF,Min DewpointF,Max Humidity, Mean Humidity, Min Humidity, Max Sea Level PressureIn, Mean Sea Level PressureIn, Min Sea Level PressureIn, Max VisibilityMiles, Mean VisibilityMiles, Min VisibilityMiles, Max Wind SpeedMPH, Mean Wind SpeedMPH, Max Gust SpeedMPH,PrecipitationIn, CloudCover, Events, WindDirDegrees
2012-8-1,84,67,50,44,34,16,74,41,8,30.05,30.02,29.99,10,10,10,17,4,23,0.00,0,,329
2012-8-2,81,64,46,40,34,24,76,45,13,30.06,29.99,29.92,10,10,10,15,5,21,0.00,0,,240
2012-8-3,78,66,54,41,36,30,59,38,17,30.01,29.98,29.94,10,10,10,16,8,24,0.00,0,,332
2012-8-4,83,63,42,42,35,30,71,44,16,30.06,30.02,29.99,10,10,10,12,3,20,0.00,0,,37
2012-8-5,90,68,46,44,38,29,71,42,12,30.05,30.01,29.96,10,10,10,12,3,17,0.00,0,,126
2012-8-6,88,73,58,51,43,32,62,38,14,30.29,30.10,30.05,10,10,10,16,5,20,T,2,,94
2012-8-7,92,72,51,47,41,32,71,42,13,30.12,30.04,29.96,10,10,10,14,3,20,0.00,0,,161
2012-8-8,91,72,53,48,42,34,72,44,15,30.15,30.01,29.96,10,10,10,17,3,21,T,0,,277
2012-8-9,91,72,53,50,42,30,66,40,13,30.09,30.01,29.91,10,10,10,13,4,17,0.00,0,,169
2012-8-10,86,70,53,47,41,28,66,40,14,29.93,29.90,29.85,10,10,10,14,4,18,0.00,0,,294
2012-8-11,86,68,49,43,35,25,66,39,11,30.02,29.98,29.94,10,10,10,12,4,16,0.00,0,,4
2012-8-12,88,67,45,43,35,23,71,40,9,30.05,29.99,29.93,10,10,10,12,3,14,0.00,0,,213
2012-8-13,91,69,47,41,32,16,66,37,7,30.09,29.97,29.90,10,10,10,20,4,29,0.00,0,,311
2012-8-14,89,66,42,41,30,14,70,39,7,29.98,29.91,29.81,10,10,10,20,4,28,0.00,0,,235
2012-8-15,87,67,47,46,38,30,61,39,17,29.92,29.88,29.85,10,10,10,15,5,24,0.00,0,,309
2012-8-16,86,67,47,47,41,30,80,47,14,29.99,29.95,29.91,10,10,10,14,4,18,0.00,0,,316
2012-8-17,88,67,46,45,37,26,80,46,12,30.05,30.00,29.97,10,10,10,16,4,21,0.00,0,,295
2012-8-18,89,69,48,41,35,24,61,36,11,30.10,29.97,29.90,10,9,3,13,3,17,T,1,,196
2012-8-19,85,69,52,44,39,31,59,37,15,29.98,29.94,29.89,10,10,10,20,3,24,0.00,0,,179
2012-8-20,84,68,51,47,42,36,71,45,18,30.02,29.96,29.90,10,10,8,9,2,12,0.00,2,,191
2012-8-21,83,68,53,47,43,37,77,51,25,29.91,29.87,29.80,10,10,5,20,3,23,T,2,Rain-Thunderstorm,215
2012-8-22,81,65,49,46,36,20,80,45,10,29.96,29.92,29.87,10,10,10,17,4,23,0.00,1,,154
2012-8-23,81,61,41,34,28,17,58,34,10,30.04,29.91,29.83,10,10,10,21,5,29,0.00,0,,227
2012-8-24,74,57,40,36,24,8,73,41,9,30.01,29.97,29.85,10,10,9,13,4,20,0.00,0,,310
2012-8-25,80,58,35,33,25,17,64,37,10,30.00,29.92,29.82,10,10,10,10,2,15,0.00,0,,359
2012-8-26,83,63,42,45,35,28,76,46,15,29.92,29.85,29.79,10,10,10,16,4,21,0.00,2,,68
2012-8-27,84,68,51,49,40,32,77,47,17,30.01,29.96,29.87,10,10,8,15,4,20,0.00,1,,171
2012-8-28,83,64,44,42,30,14,65,37,9,30.03,29.96,29.86,10,10,10,17,5,23,0.00,0,,186
2012-8-29,72,58,43,41,33,25,71,44,17,30.04,29.99,29.88,10,10,7,20,6,28,0.00,0,,169
2012-8-30,79,58,37,37,31,21,85,49,12,30.05,29.96,29.87,10,10,10,14,3,17,0.00,0,,168
2012-8-31,78,59,39,41,34,28,62,41,19,29.89,29.85,29.79,10,10,10,21,4,26,0.00,0,,160